Regional Weather Roundup
Issued by NWS

Home | Current Version | Previous Version | Graphics & Text | Print | Product List | Glossary On
Versions: 1 2 3 4 5 6 7 8 9 10 11 12 13 14 15 16 17 18 19 20 21 22 23 24 25 26 27 28 29 30 31 32 33 34 35 36 37 38 39 40 41 42 43 44 45 46 47 48 49 50
000
ASUS43 KOAX 252302
RWRNE

WEATHER ROUNDUP FOR NEBRASKA
NATIONAL WEATHER SERVICE OMAHA NE
600 PM CDT FRI JUL 25 2014

NOTES: SATELLITE DATA IS BEING USED TO AUGMENT CLOUD COVER ABOVE
       12000 FEET.
       "FAIR" INDICATES FEW OR NO CLOUDS BELOW 12,000 FEET WITH NO
       SIGNIFICANT WEATHER AND/OR OBSTRUCTIONS TO VISIBILITY.

  * THESE STATIONS DO NOT REPORT WEATHER SUCH AS RAIN...SNOW OR FOG.

NEZ001>004-019>022-054>056-260000-
NEBRASKA PANHANDLE

CITY           SKY/WX    TMP DP  RH WIND       PRES   REMARKS
SCOTTSBLUFF    MOSUNNY   88  55  32 E13       29.92F
ALLIANCE       PTSUNNY   88  50  27 S9        29.93F
CHADRON        MOSUNNY   90  49  24 SE9       29.86F
KIMBALL        RAIN      76  65  69 SW18      30.04R
SIDNEY         MOSUNNY   91  50  24 SE7       29.99R
$$

NEZ057>060-069>072-079>082-260000-
SOUTHWEST NEBRASKA

CITY           SKY/WX    TMP DP  RH WIND       PRES   REMARKS
NORTH PLATTE   MOSUNNY   93  62  35 E5        29.86F HX  93
IMPERIAL       SUNNY     93  60  33 NE8       29.90F HX  93
LEXINGTON      MOSUNNY   92  69  47 CALM      29.85S HX  96
MCCOOK         SUNNY     95  64  35 E12       29.85F HX  97
OGALLALA       HAZE      89  59  36 E7        29.90F VSB 3/4
$$

NEZ005>010-023>029-035>040-094-260000-
NORTH CENTRAL NEBRASKA

CITY           SKY/WX    TMP DP  RH WIND       PRES   REMARKS
VALENTINE      SUNNY     91  57  31 VRB3      29.85F
AINSWORTH      SUNNY     87  64  45 E3        29.85S
BROKEN BOW     MOSUNNY   91  69  48 NE6       29.85S HX  96
O`NEILL        SUNNY     92  60  34 N5        29.81S HX  91
ORD            MOSUNNY   90  69  50 N6        29.81S HX  94
THEDFORD       PTSUNNY   89  65  45 SE3       29.88F HX  90
$$

NEZ041-046>049-061>064-073>077-083>087-260000-
SOUTH CENTRAL NEBRASKA

CITY           SKY/WX    TMP DP  RH WIND       PRES   REMARKS
GRAND ISLAND   MOSUNNY   92  73  53 NE6       29.80S HX 100
AURORA         MOSUNNY   92  71  49 CALM      29.79S HX  98
HASTINGS       MOSUNNY   92  65  40 N8        29.81S HX  94
HEBRON         MOSUNNY   94  69  43 N8        29.76S HX 100
HOLDREGE       MOSUNNY   91  69  48 N7        29.83F HX  95
KEARNEY *      SUNNY     91  68  46 NW9       29.84S HX  95
YORK           MOSUNNY   91  73  55 N5        29.78S HX 100
$$

NEZ011>018-030>034-042>045-260000-
NORTHEAST NEBRASKA

CITY           SKY/WX    TMP DP  RH WIND       PRES   REMARKS
NORFOLK        MOSUNNY   90  71  53 N7        29.77R HX  96
ALBION         MOSUNNY   87  71  59 CALM      29.80R HX  92
BLAIR          PTSUNNY   91  73  56 CALM      29.75S HX  99
COLUMBUS *     SUNNY     91  73  55 CALM      29.77S HX 100
FREMONT        MOSUNNY   92  75  56 NW3       29.75R HX 103
WAYNE          MOSUNNY   89  76  65 NE7       29.77S HX  99
$$

NEZ050>053-065>068-078-088>093-260000-
SOUTHEAST NEBRASKA

CITY           SKY/WX    TMP DP  RH WIND       PRES   REMARKS
LINCOLN        SUNNY     97  69  40 W8        29.75S HX 103
OMAHA EPPLEY   PTSUNNY   92  76  59 E5        29.72F HX 104
BEATRICE       SUNNY     95  76  53 NW8       29.74S HX 109
FALLS CITY     SUNNY    101  69  35 SW14      29.71R HX 107
NEBRASKA CITY  MOSUNNY   96  69  41 W6        29.73S HX 101
PLATTSMOUTH    MOSUNNY   96  72  46 NW6       29.73S HX 104
$$

NEZ044-045-051>053-067-260000-
OMAHA AREA

CITY           SKY/WX    TMP DP  RH WIND       PRES   REMARKS
OMAHA EPPLEY   PTSUNNY   92  76  59 E5        29.72F HX 104
BLAIR          PTSUNNY   91  73  56 CALM      29.75S HX  99
FREMONT        MOSUNNY   92  75  56 NW3       29.75R HX 103
MILLARD        PTSUNNY   94  75  53 CALM      29.72S HX 105
OFFUTT AFB     PTSUNNY   94  76  55 VRB2      29.72S HX 106
PLATTSMOUTH    MOSUNNY   96  72  46 NW6       29.73S HX 104
WAHOO          FAIR      91  74  55 NW3       29.74S HX 100
$$



USA.gov is the U.S. government's official web portal to all federal, state and local government web resources and services.